Date String (YYYY-MM-DD hh:mm:ss) UTC,Instrument flags,absolute air pressure of the measurement (hPa),sample flow rate (lpm),inlet stack bypass flow (lpm),air temperature of the measurement (°C),ambient temperature measured by the external sensor (°C),aerosol sample conditioner tube jacket temperature (°C),OPC LED temperature (°C),internal box temperature (°C),relative humidity of the measurement (%),span deviation,mass concentration of particles derived from Lorenz-Mie calculation of OPC scattering (μg/m³),mass concentration of particles derived from Lorenz-Mie calculation of OPC scattering (μg/m³),mass concentration of particles derived from Lorenz-Mie calculation of OPC scattering (μg/m³)
DateTimeUTC,F1_M11,P_M11,Q1_M11,Q2_M11,T1_M11,T2_M11,T3_M11,T4_M11,T5_M11,U1_M11,ZSPAN_M11,X0_M11,X2_M11,X1_M11
2024-05-19 12:00:00,SystemResetWarning,0825.3,5.00,000.00,025.6,025.0,000.0,033.6,027.4,022.7,0000.0,0016.19,0004.22,0002.73
2024-05-19 12:01:00,SystemResetWarning,0825.3,4.99,000.00,025.6,025.0,000.0,033.7,027.4,022.7,0000.0,0016.69,0004.33,0002.81
2024-05-19 12:02:00,SystemResetWarning,0825.3,4.99,000.00,025.6,025.0,000.0,033.7,027.4,022.6,0000.0,0017.44,0004.39,0002.84
2024-05-19 12:03:00,SystemResetWarning,0825.2,5.01,000.00,025.6,025.0,000.0,033.7,027.4,022.6,0000.0,0016.93,0004.39,0002.87
2024-05-19 12:04:00,SystemResetWarning,0825.3,5.01,000.00,025.7,025.0,000.0,033.7,027.4,022.7,0000.0,0016.17,0004.40,0002.88
2024-05-19 12:05:00,SystemResetWarning,0825.2,5.01,000.00,025.7,025.0,000.0,033.7,027.4,022.6,0000.0,0015.07,0004.37,0002.88
2024-05-19 12:06:00,SystemResetWarning,0825.2,5.00,000.00,025.7,025.0,000.0,033.7,027.4,022.3,0000.0,0014.77,0004.34,0002.87
2024-05-19 12:07:00,SystemResetWarning,0825.2,4.99,000.00,025.7,025.0,000.0,033.7,027.5,021.9,0000.0,0015.21,0004.31,0002.87
2024-05-19 12:08:00,SystemResetWarning,0825.2,4.99,000.00,025.7,025.1,000.0,033.8,027.5,021.9,0000.0,0014.65,0004.22,0002.85
2024-05-19 12:09:00,SystemResetWarning,0825.2,5.00,000.00,025.7,025.1,000.0,033.8,027.4,021.8,0000.0,0013.83,0004.15,0002.81
2024-05-19 12:10:00,SystemResetWarning,0825.2,5.00,000.00,025.7,025.1,000.0,033.8,027.5,021.9,0000.0,0012.80,0004.05,0002.76
2024-05-19 12:11:00,SystemResetWarning,0825.2,5.01,000.00,025.7,025.1,000.0,033.8,027.5,022.3,0000.0,0012.66,0003.98,0002.73
2024-05-19 12:12:00,SystemResetWarning,0825.2,5.00,000.00,025.8,025.1,000.0,033.8,027.5,022.2,0000.0,0012.35,0003.91,0002.70
2024-05-19 12:13:00,SystemResetWarning,0825.2,5.00,000.00,025.8,025.1,000.0,033.8,027.5,022.1,0000.0,0011.31,0003.83,0002.68
2024-05-19 12:14:00,SystemResetWarning,0825.2,5.00,000.00,025.8,025.1,000.0,033.9,027.6,022.2,0000.0,0011.27,0003.74,0002.66
2024-05-19 12:15:00,SystemResetWarning,0825.2,5.00,000.00,025.8,025.2,000.0,033.9,027.6,022.2,0000.0,0010.91,0003.64,0002.63
2024-05-19 12:16:00,SystemResetWarning,0825.2,4.99,000.00,025.8,025.2,000.0,033.9,027.6,022.0,0000.0,0011.32,0003.62,0002.61
2024-05-19 12:17:00,SystemResetWarning,0825.2,4.99,000.00,025.8,025.1,000.0,033.9,027.5,022.0,0000.0,0011.68,0003.60,0002.58
2024-05-19 12:18:00,SystemResetWarning,0825.1,4.99,000.00,025.6,023.1,000.0,034.0,026.5,022.3,0000.0,0010.66,0003.55,0002.56
2024-05-19 12:19:00,SystemResetWarning,0825.1,5.02,000.00,025.1,021.9,000.0,034.0,025.7,022.9,0000.0,0010.03,0003.57,0002.55
2024-05-19 12:20:00,SystemResetWarning,0825.1,5.01,000.00,024.9,022.0,000.0,033.9,025.6,023.2,0000.0,0010.02,0003.56,0002.54
2024-05-19 12:21:00,SystemResetWarning,0825.1,4.99,000.00,024.8,022.4,000.0,033.7,025.9,023.3,0000.0,0009.92,0003.53,0002.52
2024-05-19 12:22:00,SystemResetWarning,0825.1,5.01,000.00,024.8,022.7,000.0,033.6,026.1,023.3,0000.0,0009.47,0003.50,0002.53
2024-05-19 12:23:00,SystemResetWarning,0825.2,4.99,000.00,024.8,023.0,000.0,033.5,026.3,023.2,0000.0,0009.50,0003.49,0002.50
2024-05-19 12:24:00,SystemResetWarning,0825.2,4.99,000.00,024.9,023.3,000.0,033.4,026.5,023.1,0000.0,0010.20,0003.48,0002.49
2024-05-19 12:25:00,SystemResetWarning,0825.2,5.00,000.00,024.9,023.5,000.0,033.4,026.6,022.9,0000.0,0010.12,0003.47,0002.46
2024-05-19 12:26:00,SystemResetWarning,0825.2,5.00,000.00,024.9,023.7,000.0,033.3,026.6,022.8,0000.0,0009.72,0003.48,0002.43
2024-05-19 12:27:00,SystemResetWarning,0825.2,5.00,000.00,024.9,023.9,000.0,033.3,026.7,022.6,0000.0,0009.22,0003.47,0002.41
2024-05-19 12:28:00,SystemResetWarning,0825.2,5.01,000.00,025.0,024.0,000.0,033.3,026.7,022.4,0000.0,0008.54,0003.41,0002.38
2024-05-19 12:29:00,SystemResetWarning,0825.2,5.01,000.00,025.0,024.1,000.0,033.3,026.7,022.5,0000.0,0008.68,0003.37,0002.35
2024-05-19 12:30:00,SystemResetWarning,0825.2,5.00,000.00,025.0,024.2,000.0,033.3,026.8,022.4,0000.0,0008.50,0003.33,0002.34
2024-05-19 12:31:00,SystemResetWarning,0825.2,4.98,000.00,025.1,024.3,000.0,033.3,026.8,022.3,0000.0,0008.89,0003.33,0002.32
2024-05-19 12:32:00,SystemResetWarning,0825.2,5.00,000.00,025.1,024.4,000.0,033.3,026.9,022.5,0000.0,0009.01,0003.33,0002.31
2024-05-19 12:33:00,SystemResetWarning,0825.3,5.00,000.00,025.1,024.4,000.0,033.3,026.9,022.3,0000.0,0008.90,0003.32,0002.28
2024-05-19 12:34:00,SystemResetWarning,0825.2,5.00,000.00,025.2,024.5,000.0,033.3,027.0,022.4,0000.0,0008.78,0003.29,0002.25
2024-05-19 12:35:00,SystemResetWarning,0825.2,5.01,000.00,025.2,024.5,000.0,033.3,027.0,023.0,0000.0,0008.15,0003.27,0002.23
2024-05-19 12:36:00,SystemResetWarning,0825.2,5.00,000.00,025.2,024.6,000.0,033.3,027.1,022.6,0000.0,0007.78,0003.26,0002.22
2024-05-19 12:37:00,SystemResetWarning,0825.2,5.00,000.00,025.3,024.6,000.0,033.4,027.1,022.5,0000.0,0007.68,0003.25,0002.22
2024-05-19 12:38:00,SystemResetWarning,0825.2,4.99,000.00,025.3,024.7,000.0,033.4,027.1,022.5,0000.0,0007.42,0003.18,0002.20
2024-05-19 12:39:00,SystemResetWarning,0825.2,4.99,000.00,025.3,024.7,000.0,033.4,027.1,022.2,0000.0,0007.37,0003.18,0002.19
2024-05-19 12:40:00,SystemResetWarning,0825.2,5.00,000.00,025.3,024.7,000.0,033.4,027.1,022.1,0000.0,0006.75,0003.16,0002.19
2024-05-19 12:41:00,SystemResetWarning,0825.2,5.00,000.00,025.4,024.8,000.0,033.4,027.1,021.9,0000.0,0006.87,0003.16,0002.19
2024-05-19 12:42:00,SystemResetWarning,0825.2,5.00,000.00,025.4,024.8,000.0,033.5,027.2,021.8,0000.0,0006.63,0003.09,0002.17
2024-05-19 12:43:00,SystemResetWarning,0825.1,5.01,000.00,025.4,024.8,000.0,033.5,027.2,021.7,0000.0,0006.82,0003.07,0002.17
2024-05-19 12:44:00,SystemResetWarning,0825.2,5.00,000.00,025.4,024.8,000.0,033.5,027.2,021.7,0000.0,0007.34,0003.08,0002.17
2024-05-19 12:45:00,SystemResetWarning,0825.2,5.00,000.00,025.4,024.8,000.0,033.5,027.2,021.6,0000.0,0007.28,0003.05,0002.18
2024-05-19 12:46:00,SystemResetWarning,0825.1,5.00,000.00,025.5,024.9,000.0,033.5,027.2,021.5,0000.0,0007.15,0003.00,0002.16
2024-05-19 12:47:00,SystemResetWarning,0825.1,5.00,000.00,025.5,024.9,000.0,033.5,027.3,021.5,0000.0,0007.02,0002.96,0002.15
2024-05-19 12:48:00,SystemResetWarning,0825.2,5.00,000.00,025.5,024.9,000.0,033.6,027.3,021.6,0000.0,0007.08,0002.97,0002.16
2024-05-19 12:49:00,SystemResetWarning,0825.1,5.00,000.00,025.5,024.9,000.0,033.6,027.3,021.5,0000.0,0007.16,0003.01,0002.18
2024-05-19 12:50:00,SystemResetWarning,0825.2,5.00,000.00,025.5,024.9,000.0,033.6,027.3,021.3,0000.0,0007.20,0003.05,0002.21
2024-05-19 12:51:00,SystemResetWarning,0825.2,5.00,000.00,025.6,024.9,000.0,033.6,027.3,021.7,0000.0,0007.39,0003.11,0002.23
2024-05-19 12:52:00,SystemResetWarning,0825.2,5.00,000.00,025.6,024.9,000.0,033.6,027.3,021.4,0000.0,0007.62,0003.13,0002.25
2024-05-19 12:53:00,SystemResetWarning,0825.2,5.00,000.00,025.6,025.0,000.0,033.6,027.4,020.9,0000.0,0007.51,0003.18,0002.27
2024-05-19 12:54:00,SystemResetWarning,0825.2,5.00,000.00,025.6,025.0,000.0,033.7,027.4,021.3,0000.0,0006.95,0003.20,0002.28
2024-05-19 12:55:00,SystemResetWarning,0825.2,5.00,000.00,025.6,025.0,000.0,033.7,027.4,021.0,0000.0,0006.20,0003.18,0002.31
2024-05-19 12:56:00,SystemResetWarning,0825.2,5.00,000.00,025.6,025.0,000.0,033.7,027.4,020.8,0000.0,0006.20,0003.20,0002.32
2024-05-19 12:57:00,SystemResetWarning,0825.2,4.99,000.00,025.7,025.0,000.0,033.7,027.4,020.9,0000.0,0006.28,0003.23,0002.35
2024-05-19 12:58:00,SystemResetWarning,0825.2,5.00,000.00,025.7,025.0,000.0,033.7,027.4,021.2,0000.0,0006.59,0003.27,0002.37
2024-05-19 12:59:00,SystemResetWarning,0825.2,5.00,000.00,025.7,025.0,000.0,033.7,027.4,021.4,0000.0,0006.69,0003.27,0002.37
